Volver al catálogo

CZ-4 DEB

ActivoSSO
NORAD 35332·DEBRIS·🇨🇳 China

Lanzado Oct 14, 1999 desde Taiyuan Satellite Launch Center

Loading…

Próximos Pases (próximas 24 horas)

TLE

ActualizadoSource: Space-Track

Época: Sep 12, 2026, 15:57 UTC

1 35332U 99057SL  26255.66514128  .00000057  00000-0  37418-4 0  9998
2 35332  98.2709  56.4244 0119993 273.2839  85.4622 14.27360979230363

Sigue CZ-4 DEB en tiempo real con AllMySat

Download on the App Store